Find Starlink 3804

NORAD ID: 52270 Int'l Des: 2022-041 Owner: SPXS Country: US Constellation: starlink operational
LEOCIRCULAR

当前视图

正在加载3D地球...

About Starlink 3804

Starlink 3804 (NORAD 52270) is a starlink constellation satellite (v1.5) launched Apr 21, 2022 by SPXS of US. It operates in LEO, CIRCULAR orbit with a mass of 297.00 kg.

关于 Starlink 3804

正在加载描述...

即将过境

Passes for default location (London). Set your location on the main map for personalized predictions.

高度历史

Loading altitude history...

两行轨道根数

1 52270U 22041K 26174.86900696 .00000303 00000-0 37140-4 0 9994
2 52270 53.1604 352.3568 0001353 100.2605 259.8539 15.08829880230392
Epoch: Jun 23, 2026 • Age: 9 hours

当前状态

高度 540.5 km
速度 7.59 km/s
星下点 -0.45°S, 174.64°E
发射日期 Apr 21, 2022
运行时间 4.1 years
类型 internet

技术详情

分类 Payload
质量 297.00 kg
干质量 275.00 kg
总质量 297.00 kg
长度 0.20 m
直径 2.80 m
跨度 9.00 m
形状 Box + pan
制造商 SPXS
平台类型 Starlink
阶段状态 In Orbit
所有者/国家 SPXS/US

Most Searched